Temp
65 65 64 63 53 45 40 49 55 59 63 72 73 71 70 73 70 62 75 80 82 77 78 78 79 79 79 79 79 79 79 79 79 79 79 79 79 79 79 79 79 80 80 80 80 80 80 80 80
63 68 63 54 45 38 42 49 54 61 67 71 74 72 70 70 77 77 75 80 80 78 78 78 79 79 79 79 78 78 78 78 78 79 79 79 79 79 79 79 79 80 80 80 80 80 80 80 80
65 66 56 50 40 39 44 52 54 60 68 69 69 77 74 72 79 77 77 80 79 78 79 78 79 79 79 79 78 78 78 78 78 79 79 79 79 79 78 79 79 80 80 80 80 80 80 80 80
61 59 54 44 41 44 50 52 55 60 66 68 69 70 78 82 79 80 79 79 79 78 78 79 79 79 79 79 78 78 78 78 79 79 79 79 79 78 78 78 79 79 80 80 80 79 79 79 79
57 51 42 36 39 46 53 57 57 59 60 67 69 68 71 79 79 77 78 80 77 76 77 78 79 79 79 79 78 78 78 78 78 79 79 79 78 78 78 78 79 79 80 79 79 79 79 78 78
50 48 37 37 40 49 54 57 58 58 61 67 66 68 70 76 77 75 78 77 78 76 77 77 79 79 78 78 78 78 78 78 78 78 78 78 78 78 78 78 78 79 79 79 79 79 78 78 78
47 42 35 34 41 46 53 59 57 56 60 63 68 65 69 73 75 77 77 77 77 77 77 76 77 78 79 78 78 77 77 77 77 77 77 77 77 77 77 77 78 78 78 78 78 78 78 78 77
48 44 34 36 40 41 53 58 55 59 62 73 73 63 64 73 76 76 76 74 74 75 76 75 75 77 77 77 78 77 77 77 77 77 77 77 77 77 77 77 77 78 78 78 78 78 78 77 77
51 39 31 37 41 44 53 52 61 65 64 66 71 71 74 78 77 73 72 71 72 74 75 77 75 75 75 75 77 77 78 78 77 77 77 76 74 75 76 76 77 78 78 78 78 78 77 77 77
46 35 38 47 48 48 52 52 57 59 61 61 65 73 75 77 72 69 69 69 71 72 74 77 76 74 74 77 76 75 76 76 75 75 75 73 72 72 74 75 77 77 78 78 78 77 78 78 77
43 40 47 51 54 53 51 54 59 57 53 60 61 68 72 73 70 70 70 70 71 74 75 77 77 74 75 76 75 74 74 74 73 73 73 71 71 71 72 71 71 71 74 74 75 75 76 77 77
41 51 52 52 56 52 52 57 56 59 59 66 67 70 69 68 70 70 70 73 72 73 75 77 77 74 74 75 73 74 73 72 72 72 71 69 68 68 68 69 70 70 72 72 72 74 75 76 78
44 47 52 54 53 51 55 53 55 57 64 68 68 70 67 66 68 70 72 73 73 72 74 75 76 74 74 73 73 73 72 72 71 70 70 69 67 66 67 68 70 71 71 71 72 74 75 74 75
48 49 51 51 51 51 52 55 55 58 65 65 66 66 66 66 67 67 69 69 71 71 72 74 75 73 73 72 72 73 71 71 70 70 70 69 67 66 68 69 70 70 71 72 73 73 70 69 71
49 42 46 48 49 50 51 48 50 60 62 61 62 65 66 66 68 67 69 69 70 70 71 73 74 76 73 71 72 72 72 70 69 69 69 69 68 68 69 69 70 71 72 72 69 68 68 68 69
44 39 33 45 51 53 51 43 53 60 57 58 61 63 65 64 66 68 69 68 69 70 71 72 76 74 72 71 70 71 70 69 69 69 69 70 70 70 70 69 70 71 69 68 67 67 67 66 67
37 33 36 43 50 50 48 43 52 57 58 58 57 59 62 63 64 65 70 69 69 69 69 71 72 72 71 70 70 70 68 68 68 68 69 70 71 72 70 70 70 69 67 67 68 66 67 65 65
34 35 39 40 45 50 47 46 53 57 55 56 55 57 60 61 62 64 66 69 70 69 69 71 72 71 71 69 69 68 67 68 68 68 69 70 72 73 71 70 68 67 66 65 66 64 64 64 63
44 40 39 45 50 46 45 46 50 55 53 54 52 54 56 59 63 64 66 69 68 68 68 68 69 70 68 66 67 66 68 67 68 69 71 71 72 72 70 68 66 66 65 65 65 64 64 62 62
43 39 39 46 51 45 44 43 50 53 54 55 55 54 55 58 60 64 64 66 68 67 67 68 68 68 68 69 70 68 68 68 68 69 70 71 72 71 69 66 65 65 64 64 65 65 62 62 60
42 39 41 41 47 49 46 41 46 51 54 56 58 58 58 58 58 61 64 64 67 67 68 68 67 68 67 68 69 68 67 67 66 67 68 70 71 70 67 66 65 64 64 64 63 63 62 61 60
35 46 45 44 41 36 47 30 41 49 50 52 54 55 57 58 61 62 62 63 66 67 68 69 68 68 69 70 69 68 69 66 66 67 68 68 68 67 66 66 64 63 64 63 63 63 61 61 59
42 50 45 44 40 38 39 33 37 45 44 49 53 53 54 59 61 61 62 65 66 66 67 66 66 66 66 66 65 66 67 68 68 68 66 65 64 65 65 64 63 63 63 62 61 60 59 60 59
50 44 44 42 38 30 35 33 34 39 43 48 51 53 56 58 60 62 65 66 66 67 66 65 65 65 65 65 66 66 68 68 67 66 65 64 63 63 63 64 63 62 62 61 60 59 58 58 57
43 39 32 25 28 29 39 34 35 45 46 48 50 51 55 59 60 61 62 66 66 66 65 67 66 64 65 65 66 66 69 68 67 66 64 62 62 62 62 63 62 62 61 60 59 58 57 57 56
40 40 32 25 28 32 40 32 38 51 53 51 52 52 55 55 58 61 63 66 67 66 66 67 66 65 66 65 66 66 69 68 67 66 64 62 61 61 62 61 61 60 59 59 58 58 57 56 56
42 38 44 32 35 31 35 39 46 52 51 52 52 51 50 53 56 59 63 66 68 68 67 69 67 64 65 66 64 65 68 68 66 64 62 61 61 61 61 60 59 59 59 58 57 57 55 55 53
47 50 36 35 26 26 36 35 37 44 47 51 51 50 49 52 55 58 64 66 67 68 69 68 65 63 64 65 65 64 65 68 64 63 61 59 59 60 58 58 58 57 57 56 55 54 53 53 52
43 40 42 39 35 29 28 34 46 45 47 48 52 53 50 50 52 58 63 65 66 67 66 62 63 63 63 66 67 67 66 64 63 61 59 58 58 57 56 57 56 55 54 54 53 52 52 50 49
49 44 42 35 34 33 33 34 49 48 51 51 51 55 54 52 53 57 61 62 62 62 61 61 62 64 66 67 67 65 65 64 60 59 58 58 55 55 55 54 53 53 53 52 52 52 51 49 48
MSLP
1009.99 1009.78 1009.76 1010.05 1011.55 1012.17 1011.44 1010.20 1008.84 1007.46 1006.01 1005.14 1004.76 1004.73 1004.39 1004.38 1004.58 1003.90 1002.05 1002.29 1002.75 1003.02 1003.25 1003.89 1005.18 1005.99 1007.17 1007.91 1008.21 1008.58 1009.11 1009.11 1009.31 1009.72 1010.14 1010.52 1010.91 1011.17 1011.38 1011.64 1011.82 1011.99 1012.02 1012.17 1012.29 1012.47 1012.63 1012.70 1012.76
1010.11 1009.91 1010.05 1011.07 1012.23 1012.73 1011.36 1009.81 1008.82 1007.23 1005.90 1005.18 1004.68 1004.27 1004.33 1003.78 1003.23 1002.67 1002.19 1002.67 1003.04 1003.99 1003.64 1003.58 1004.47 1005.40 1006.59 1007.66 1008.15 1008.47 1008.98 1009.20 1009.52 1009.87 1010.27 1010.70 1011.08 1011.34 1011.50 1011.65 1011.88 1012.05 1012.17 1012.26 1012.38 1012.55 1012.72 1012.82 1012.86
1010.03 1010.13 1010.94 1011.68 1012.28 1011.73 1011.02 1009.26 1008.24 1007.37 1006.16 1005.50 1004.85 1003.97 1003.76 1003.07 1002.55 1002.53 1002.29 1002.65 1003.48 1004.20 1004.81 1004.78 1003.61 1004.98 1006.30 1007.21 1007.89 1008.57 1009.01 1009.11 1009.52 1010.02 1010.31 1010.67 1011.13 1011.47 1011.59 1011.77 1011.94 1012.17 1012.28 1012.38 1012.56 1012.70 1012.80 1012.89 1012.88
1010.40 1010.85 1012.04 1012.11 1011.81 1011.31 1010.20 1008.95 1008.12 1007.49 1006.33 1005.57 1005.11 1004.34 1003.35 1002.16 1002.24 1002.24 1002.53 1003.06 1003.96 1004.40 1004.83 1005.17 1004.53 1005.02 1006.11 1007.05 1007.62 1008.33 1009.10 1009.23 1009.43 1010.02 1010.53 1010.66 1011.08 1011.42 1011.66 1011.85 1012.01 1012.17 1012.34 1012.47 1012.64 1012.69 1012.72 1012.83 1012.90
1010.97 1011.88 1012.73 1012.67 1011.92 1011.08 1009.96 1008.82 1008.18 1007.64 1007.09 1006.12 1005.33 1004.58 1003.52 1002.42 1002.44 1002.43 1002.72 1002.93 1003.93 1004.74 1005.41 1005.52 1005.85 1005.43 1005.91 1006.63 1007.61 1008.14 1008.92 1009.38 1009.56 1010.08 1010.38 1010.89 1011.04 1011.35 1011.71 1011.90 1012.09 1012.20 1012.38 1012.61 1012.76 1012.87 1012.70 1012.69 1012.86
1012.05 1012.83 1013.52 1012.95 1011.85 1010.81 1009.72 1008.73 1008.35 1007.88 1007.13 1006.40 1005.83 1005.15 1003.79 1003.16 1003.28 1003.65 1003.34 1003.28 1003.90 1004.55 1005.49 1005.93 1006.41 1006.37 1006.34 1006.49 1007.47 1007.90 1008.52 1009.32 1009.69 1010.06 1010.61 1010.78 1011.17 1011.33 1011.68 1011.92 1012.04 1012.19 1012.45 1012.66 1012.75 1012.81 1012.81 1012.56 1012.59
1012.51 1013.42 1013.39 1012.75 1012.05 1010.97 1009.74 1008.86 1008.49 1008.26 1007.53 1006.58 1006.09 1005.47 1003.90 1003.52 1003.60 1004.01 1004.21 1003.88 1004.51 1004.82 1005.51 1005.96 1006.76 1007.07 1006.83 1006.68 1007.21 1007.76 1008.40 1009.00 1009.59 1010.06 1010.42 1010.93 1011.26 1011.32 1011.53 1011.86 1012.04 1012.09 1012.26 1012.58 1012.65 1012.67 1012.69 1012.63 1012.29
1012.66 1013.28 1013.48 1012.92 1012.24 1011.19 1010.05 1009.36 1008.92 1008.54 1007.67 1006.66 1006.10 1005.45 1004.42 1003.68 1003.74 1003.71 1004.05 1004.73 1004.67 1005.05 1005.67 1006.21 1006.47 1007.59 1007.71 1007.39 1007.51 1007.63 1008.39 1009.05 1009.46 1009.94 1010.37 1010.66 1011.09 1011.28 1011.46 1011.77 1011.94 1012.09 1012.28 1012.50 1012.58 1012.54 1012.55 1012.55 1012.42
1012.45 1013.59 1013.89 1012.99 1012.08 1011.23 1010.28 1009.96 1008.97 1008.28 1007.90 1007.23 1006.56 1005.74 1004.82 1003.77 1003.32 1003.73 1003.97 1004.76 1004.90 1005.13 1005.58 1006.05 1006.90 1007.22 1007.82 1007.98 1008.07 1008.05 1008.34 1009.08 1009.59 1010.00 1010.35 1010.64 1010.93 1011.21 1011.55 1011.91 1012.00 1012.20 1012.20 1012.28 1012.42 1012.42 1012.41 1012.37 1012.30
1012.71 1013.81 1013.40 1012.52 1011.83 1011.22 1010.54 1010.14 1009.46 1008.65 1007.83 1007.40 1006.78 1005.34 1004.63 1004.14 1004.13 1004.64 1004.44 1004.03 1004.77 1004.62 1005.22 1005.72 1006.54 1007.10 1007.40 1007.73 1008.32 1008.55 1008.71 1009.16 1009.59 1010.09 1010.43 1010.85 1011.06 1011.30 1011.64 1011.93 1012.09 1012.21 1012.25 1012.20 1012.32 1012.31 1012.35 1012.35 1012.20
1012.88 1013.10 1012.42 1011.79 1011.19 1010.84 1010.48 1009.88 1009.15 1008.49 1007.81 1007.16 1006.52 1005.42 1004.75 1004.25 1004.26 1004.46 1005.06 1005.24 1004.96 1005.10 1004.79 1005.34 1006.21 1007.04 1007.54 1007.52 1007.84 1008.85 1009.11 1009.40 1009.67 1009.91 1010.52 1010.72 1011.18 1011.54 1011.90 1012.07 1012.27 1012.36 1012.21 1012.20 1012.44 1012.36 1012.26 1012.30 1012.15
1012.69 1012.04 1011.80 1011.32 1010.70 1010.55 1010.27 1009.47 1008.73 1008.31 1007.51 1006.72 1006.16 1005.33 1004.52 1004.20 1003.99 1003.89 1004.04 1004.60 1005.05 1005.37 1005.57 1005.35 1005.96 1006.84 1007.38 1007.58 1008.12 1008.45 1009.31 1009.66 1010.12 1010.27 1010.47 1011.08 1011.45 1011.65 1012.05 1012.22 1012.34 1012.30 1012.26 1012.08 1012.26 1012.38 1012.23 1012.29 1012.32
1012.43 1011.93 1011.60 1011.13 1010.74 1010.21 1009.46 1008.99 1008.24 1007.30 1006.87 1006.00 1005.68 1005.04 1004.21 1003.87 1003.45 1003.26 1003.08 1003.22 1004.38 1005.11 1005.52 1006.09 1006.51 1006.91 1007.08 1007.57 1008.18 1008.67 1009.07 1009.80 1010.20 1010.67 1010.71 1011.05 1011.76 1011.91 1012.07 1012.13 1012.17 1012.34 1012.25 1012.12 1012.17 1012.28 1012.38 1012.45 1012.59
1012.05 1011.73 1011.35 1010.81 1009.99 1009.32 1008.91 1007.84 1007.60 1006.31 1005.64 1005.47 1005.19 1004.70 1003.91 1003.48 1003.12 1002.86 1003.02 1003.09 1003.11 1004.07 1005.22 1005.79 1006.43 1007.34 1007.84 1007.73 1008.00 1008.46 1009.02 1009.62 1010.32 1010.61 1010.88 1011.25 1011.74 1012.15 1012.38 1012.23 1012.11 1012.19 1012.02 1012.04 1012.15 1012.58 1012.91 1013.02 1013.03
1012.09 1011.85 1011.21 1010.15 1009.58 1009.04 1008.30 1007.48 1006.58 1005.59 1005.17 1005.00 1004.81 1004.49 1003.91 1003.25 1002.62 1002.53 1002.27 1002.46 1002.60 1002.97 1004.17 1004.98 1005.90 1006.88 1007.99 1008.66 1008.59 1008.56 1008.76 1009.52 1010.49 1010.64 1010.83 1011.36 1011.91 1012.30 1012.45 1012.37 1012.28 1012.13 1011.98 1012.13 1012.54 1012.88 1013.13 1013.32 1013.41
1012.46 1012.24 1011.77 1010.23 1009.51 1008.49 1008.35 1006.72 1006.42 1005.61 1005.33 1005.15 1004.55 1004.34 1003.84 1003.09 1002.53 1001.97 1001.99 1002.09 1002.51 1002.72 1003.38 1004.36 1005.07 1006.42 1007.77 1008.76 1009.32 1009.03 1009.13 1009.46 1010.03 1010.54 1010.89 1011.20 1011.73 1012.26 1012.35 1012.40 1012.32 1012.21 1012.33 1012.53 1012.95 1013.20 1013.46 1013.59 1013.79
1013.06 1012.64 1011.70 1010.16 1008.82 1008.52 1008.17 1006.66 1005.87 1005.79 1005.67 1005.01 1004.61 1004.12 1003.87 1003.14 1002.26 1001.59 1001.74 1001.83 1002.15 1002.47 1002.92 1003.84 1004.43 1005.93 1007.37 1008.23 1008.91 1009.38 1009.70 1009.85 1010.03 1010.32 1010.77 1011.21 1011.57 1011.95 1012.08 1012.38 1012.42 1012.49 1012.72 1013.04 1013.17 1013.56 1013.72 1014.08 1014.21
1013.00 1012.63 1011.89 1010.30 1008.66 1008.42 1007.77 1006.35 1004.79 1005.36 1005.26 1004.49 1004.18 1003.99 1003.65 1003.10 1002.23 1001.43 1001.36 1001.46 1002.09 1002.25 1002.78 1002.94 1003.79 1005.05 1006.79 1007.84 1008.78 1009.10 1009.55 1010.12 1010.24 1010.28 1010.58 1010.83 1011.49 1011.72 1011.92 1012.36 1012.64 1012.83 1013.00 1013.36 1013.52 1013.95 1014.14 1014.32 1014.34
1012.45 1011.96 1010.77 1008.98 1008.83 1008.54 1007.50 1006.11 1004.84 1004.05 1004.29 1003.84 1003.52 1003.50 1003.35 1002.81 1001.67 1001.07 1000.67 1001.20 1001.65 1002.34 1002.27 1002.69 1002.91 1004.61 1005.92 1007.50 1008.33 1008.98 1009.26 1009.85 1010.36 1010.32 1010.28 1010.67 1011.19 1011.48 1011.96 1012.45 1012.75 1013.01 1013.35 1013.69 1013.84 1014.16 1014.24 1014.38 1014.43
1011.82 1011.41 1009.79 1008.59 1008.17 1008.27 1007.02 1004.67 1004.35 1003.03 1002.90 1002.88 1002.72 1002.73 1002.61 1002.47 1001.63 1000.91 1000.11 1000.22 1000.82 1001.30 1002.07 1001.97 1002.58 1003.12 1005.30 1006.64 1007.30 1008.05 1008.71 1009.32 1009.72 1010.19 1010.35 1010.56 1010.91 1011.37 1011.96 1012.60 1012.94 1013.29 1013.64 1013.81 1013.88 1013.87 1014.27 1014.75 1014.91
1011.09 1010.76 1009.60 1008.82 1007.67 1007.44 1006.40 1002.73 1003.12 1001.58 1001.47 1001.43 1001.25 1001.02 1001.36 1001.49 1001.25 1000.62 1000.04 999.97 1000.23 1000.26 999.92 1000.16 1001.13 1003.16 1004.82 1005.84 1006.73 1007.77 1008.24 1009.08 1009.94 1010.48 1010.64 1010.54 1010.81 1011.50 1012.14 1012.74 1013.13 1013.51 1013.67 1013.92 1014.07 1014.09 1014.36 1014.93 1015.05
1010.39 1009.40 1009.12 1008.33 1007.97 1006.84 1006.50 1003.14 1002.73 1001.42 1000.34 1000.41 1000.01 1000.02 1000.05 1000.26 1000.16 999.89 999.76 999.82 999.80 1000.01 1000.26 1000.21 1002.17 1003.88 1004.49 1005.07 1006.05 1006.86 1007.67 1008.06 1008.78 1009.62 1010.24 1010.66 1011.05 1011.72 1012.31 1012.75 1013.11 1013.52 1013.78 1014.03 1014.24 1014.32 1014.52 1014.85 1015.64
1009.65 1008.78 1008.45 1007.66 1007.50 1007.38 1005.87 1005.82 1001.89 1000.69 999.86 998.92 998.94 999.05 999.13 999.31 999.22 998.99 999.09 999.10 999.31 999.68 1000.39 1001.50 1002.47 1003.66 1004.11 1004.71 1005.51 1006.39 1007.23 1007.49 1008.37 1009.32 1010.04 1010.83 1011.47 1011.79 1012.63 1013.11 1013.40 1013.89 1014.20 1014.34 1014.44 1014.49 1014.85 1015.40 1016.10
1008.88 1008.51 1007.31 1007.15 1007.31 1006.95 1005.81 1005.47 1002.32 1001.82 1000.27 999.03 998.03 998.15 998.03 998.46 998.47 998.29 998.17 998.68 999.08 999.65 1000.43 1001.46 1002.20 1003.12 1003.88 1004.22 1005.41 1005.88 1006.52 1007.41 1008.43 1009.44 1010.15 1011.09 1011.73 1012.49 1012.95 1013.45 1013.89 1014.17 1014.54 1014.71 1014.61 1014.95 1015.58 1016.19 1016.58
1008.98 1008.97 1007.99 1007.74 1007.38 1006.49 1005.53 1005.04 1002.33 1001.26 999.72 998.69 997.81 997.62 997.23 997.19 997.69 997.59 997.94 998.50 999.17 999.63 1000.43 1000.65 1002.05 1003.07 1003.44 1003.47 1004.73 1005.29 1005.74 1007.30 1008.33 1008.99 1009.67 1010.71 1011.47 1012.57 1013.18 1013.78 1014.26 1014.58 1014.86 1014.89 1015.03 1015.61 1016.26 1016.80 1017.20
1009.36 1009.72 1009.76 1008.97 1007.42 1005.69 1004.68 1003.90 1001.56 1000.48 999.57 998.59 997.92 997.07 996.72 996.78 996.67 996.75 996.92 997.81 998.36 998.95 999.87 1000.79 1001.32 1002.29 1002.10 1002.80 1004.43 1005.39 1005.34 1006.44 1008.05 1009.39 1009.94 1010.55 1010.95 1011.98 1013.30 1014.14 1014.65 1014.95 1015.27 1015.33 1015.83 1016.40 1017.20 1017.64 1017.63
1009.12 1009.38 1009.20 1008.57 1007.18 1006.22 1004.32 1003.09 1001.69 1000.20 999.29 998.52 998.11 998.31 997.14 996.38 996.33 996.22 996.25 996.94 997.71 998.40 999.01 999.76 1000.88 1001.35 1002.18 1003.52 1004.67 1005.76 1006.15 1006.34 1005.56 1009.43 1010.04 1010.46 1010.46 1012.41 1013.35 1014.35 1014.97 1015.36 1015.42 1015.97 1016.58 1017.01 1017.87 1018.20 1018.05
1009.08 1008.87 1008.84 1008.66 1007.44 1005.55 1003.73 1002.74 1002.10 1000.53 999.09 998.69 997.94 997.82 997.40 996.72 996.50 996.26 996.30 996.47 997.12 997.55 998.88 999.67 1000.55 1001.73 1002.87 1003.96 1004.52 1005.32 1006.13 1006.51 1005.96 1008.54 1009.76 1009.75 1011.49 1012.60 1013.54 1014.82 1015.43 1015.60 1015.84 1016.61 1017.12 1018.06 1018.46 1018.62 1018.78
1009.12 1008.78 1008.52 1008.12 1007.44 1006.16 1004.58 1002.81 1002.26 1001.47 1000.22 999.20 998.34 997.72 997.65 996.66 996.58 996.11 996.24 996.41 996.62 997.72 998.78 1000.04 1000.82 1001.87 1003.03 1003.92 1004.32 1004.77 1005.27 1006.17 1007.19 1008.52 1009.09 1010.43 1012.05 1012.96 1014.08 1015.16 1015.57 1016.07 1016.48 1017.19 1017.77 1018.54 1018.88 1019.11 1019.56
1009.31 1008.73 1008.21 1007.45 1006.87 1006.29 1005.36 1003.63 1002.35 1001.74 1000.59 999.70 998.54 997.78 996.88 996.11 996.53 996.11 996.25 996.59 996.91 998.31 999.13 1000.27 1001.11 1001.87 1002.96 1003.64 1003.80 1004.29 1004.98 1006.36 1007.64 1008.71 1010.02 1011.00 1012.51 1013.61 1014.99 1015.54 1016.14 1016.73 1017.40 1017.89 1018.34 1018.77 1019.74 1020.00 1019.92
Wind_Speed
6 6 1 5 4 6 4 7 2 2 1 3 4 5 7 4 7 8 6 14 12 20 21 24 26 24 20 19 18 18 15 16 18 18 18 18 16 15 15 14 13 12 12 11 9 8 6 5 5
4 3 5 3 6 3 6 4 6 7 3 8 5 2 2 8 4 7 2 6 14 11 16 21 28 26 24 21 19 19 17 17 17 18 18 17 15 15 15 14 12 12 10 9 8 6 6 5 5
4 2 4 5 5 7 6 6 2 2 7 4 4 3 3 6 3 3 1 8 10 13 10 14 30 28 26 24 21 19 18 18 18 17 17 16 15 14 13 12 11 10 9 7 6 5 5 5 5
2 4 5 4 8 5 4 3 3 5 6 3 4 7 7 6 5 3 9 12 11 12 11 17 25 28 26 24 23 21 18 18 18 17 15 16 15 13 12 11 9 9 7 5 3 4 3 4 4
4 3 1 2 4 3 4 5 2 5 3 7 4 7 6 3 5 7 12 16 15 11 9 14 19 25 26 26 23 22 20 17 17 16 16 15 14 12 10 10 9 7 5 3 1 2 3 3 4
4 3 2 6 3 2 5 3 2 2 3 7 6 8 7 4 7 2 9 12 13 14 10 10 16 20 23 25 23 23 21 18 17 16 14 14 13 12 10 10 9 6 4 2 2 3 3 3 3
6 4 4 3 3 1 0 6 3 2 5 5 5 5 7 7 7 6 5 9 10 12 11 10 9 13 21 23 24 22 20 19 17 15 15 13 12 11 10 9 8 6 4 2 4 4 4 5 4
5 4 1 3 2 3 0 5 3 4 6 8 5 5 9 9 2 8 10 6 10 10 10 11 9 7 9 12 22 22 20 18 17 16 15 15 13 12 11 9 7 5 3 3 4 5 6 7 7
4 4 1 4 2 2 6 6 5 3 6 3 5 15 11 19 3 10 9 6 8 9 10 12 10 10 7 8 13 18 22 19 17 15 15 11 6 6 7 6 7 5 4 4 5 6 6 7 8
4 4 6 5 3 6 5 5 7 5 9 5 12 17 8 14 2 5 10 15 13 16 15 13 13 10 10 9 8 8 11 9 9 8 9 5 4 4 5 5 5 5 5 4 5 6 6 4 2
1 5 5 5 8 5 3 7 4 5 6 7 9 14 15 8 4 5 4 5 9 10 13 15 13 10 11 9 8 4 4 5 5 9 7 6 5 3 2 1 0 2 4 1 2 3 2 2 1
2 9 7 5 5 6 8 4 6 9 10 9 10 15 13 13 9 8 8 6 6 8 10 13 14 12 10 6 6 7 4 4 4 6 6 4 2 3 3 2 3 3 2 1 1 1 3 2 2
5 4 4 7 10 9 10 11 11 11 13 15 11 13 15 12 11 8 10 12 10 9 10 11 12 11 10 10 7 6 6 4 4 3 4 4 3 3 3 3 3 3 2 2 2 1 2 3 4
3 7 11 9 13 8 10 16 6 8 11 13 10 12 12 11 11 7 7 9 14 14 9 8 9 7 5 7 9 8 5 4 4 3 4 4 3 3 3 3 3 3 2 2 2 2 3 3 3
5 8 7 5 4 7 2 9 10 13 9 8 6 8 10 11 12 10 12 12 13 13 12 11 9 8 5 5 6 6 6 6 4 3 5 4 4 4 3 2 3 1 2 4 4 4 4 3 3
6 2 5 5 8 7 6 17 6 9 3 8 9 6 8 11 11 6 11 10 9 13 15 12 12 9 7 4 3 3 4 5 5 4 3 5 5 5 4 3 2 2 3 4 3 3 3 3 3
3 7 6 10 5 6 5 15 5 6 12 18 9 7 8 10 11 9 11 11 12 12 13 16 14 11 9 6 4 2 3 3 4 4 4 5 5 6 3 3 3 4 3 3 3 3 3 2 2
9 10 9 16 6 12 19 25 25 13 10 16 10 7 8 9 12 10 8 11 11 11 12 15 13 15 10 6 4 3 4 2 2 4 4 6 5 5 3 2 4 4 4 3 3 3 3 2 2
14 14 18 23 15 13 19 25 25 21 10 14 9 8 8 10 11 10 10 10 13 12 13 14 17 14 11 6 5 3 4 3 2 3 6 6 5 5 5 3 4 4 4 4 4 2 3 5 4
11 15 23 18 13 9 17 25 22 23 19 15 15 11 10 9 8 10 11 6 13 17 18 15 15 16 11 9 7 4 4 2 3 3 4 6 6 7 7 5 4 4 4 4 3 2 2 3 4
12 11 18 22 20 15 22 29 18 16 20 18 17 17 12 13 13 10 9 7 11 14 10 12 12 14 12 11 6 3 5 4 3 2 2 3 6 5 6 6 5 5 3 3 2 4 4 2 3
7 5 11 15 12 10 4 17 18 15 17 14 14 13 15 15 14 12 8 7 12 14 12 9 12 14 12 12 10 8 8 7 4 4 4 5 7 8 7 7 6 5 3 5 3 3 3 3 2
12 15 14 18 15 13 15 8 10 8 13 19 17 12 10 14 16 14 11 15 14 16 17 16 15 13 13 12 11 7 4 4 5 7 11 9 7 8 7 6 6 5 4 4 5 6 7 4 2
12 7 19 9 2 4 7 6 8 7 8 13 6 11 13 14 15 13 12 15 16 16 17 17 19 16 15 14 11 10 11 10 10 10 9 7 7 6 7 7 6 6 4 5 7 8 8 6 5
5 11 6 6 1 5 7 4 10 11 13 9 10 11 11 14 13 13 11 16 16 17 17 18 19 19 18 19 13 11 13 11 10 13 11 13 9 6 7 7 6 6 6 7 8 8 8 5 4
8 2 3 8 6 12 4 7 7 10 13 12 9 7 8 9 13 13 14 18 19 20 21 20 20 19 17 17 16 10 15 10 7 5 9 7 8 9 9 8 8 8 7 8 9 7 6 5 5
3 5 4 6 5 4 3 6 6 16 16 17 12 6 4 2 9 12 13 16 17 20 21 22 17 10 11 11 10 8 8 14 19 12 8 8 12 9 11 10 9 8 9 10 9 7 5 5 7
2 8 3 3 6 4 5 2 4 21 26 21 18 12 8 8 6 8 12 15 15 13 11 12 9 9 11 10 11 12 10 12 16 13 13 13 12 12 13 10 9 10 10 10 9 6 6 8 7
4 7 4 4 4 4 6 1 4 15 19 18 18 14 7 11 6 7 13 13 11 12 11 10 14 14 12 11 10 14 14 13 13 12 16 14 13 13 13 11 11 10 11 9 9 8 8 10 8
6 7 6 4 7 2 4 4 6 17 16 14 15 14 10 11 4 8 10 11 11 11 10 10 10 13 13 11 11 12 17 17 14 15 15 15 14 14 11 11 11 11 9 8 8 9 8 9 10
Wind_Direction
336 314 116 43 69 62 263 250 281 214 164 349 128 145 194 167 174 213 325 182 151 158 153 147 147 143 146 147 143 141 140 133 130 132 135 137 142 144 142 140 140 145 151 151 148 139 125 111 85
337 343 43 76 106 146 257 250 198 231 304 317 277 148 222 246 251 283 12 162 148 154 155 154 147 144 147 150 148 146 146 139 137 139 141 143 145 146 144 141 144 153 158 158 155 137 110 77 56
329 43 94 138 164 188 206 223 249 298 302 322 313 229 255 223 264 261 135 142 135 157 172 169 145 146 150 152 150 149 148 144 143 145 146 145 147 147 145 142 147 159 167 170 159 122 88 63 38
44 14 34 124 224 254 200 105 355 1 332 355 329 291 289 222 170 166 136 132 143 158 168 169 152 148 150 152 151 150 152 149 148 150 150 148 148 149 148 146 154 171 181 188 165 113 79 57 22
34 55 100 251 256 257 249 302 10 338 256 280 321 297 265 314 83 125 142 144 160 153 167 165 162 153 153 152 154 152 153 154 152 155 154 152 152 152 151 153 166 180 192 214 255 59 61 33 17
46 94 85 244 211 263 294 245 129 294 311 300 6 309 263 8 30 93 145 148 150 148 155 162 168 161 156 153 156 155 156 158 157 157 156 153 155 153 160 166 172 189 212 245 308 340 348 360 348
113 89 228 265 186 328 109 331 58 347 283 262 277 282 272 55 97 137 138 131 141 144 153 153 167 178 163 157 158 157 159 159 159 159 157 156 162 163 171 178 181 193 211 252 293 313 332 325 313
104 95 297 264 63 265 18 346 317 57 275 321 21 266 304 313 260 155 139 135 137 145 153 159 150 181 176 163 161 159 161 162 161 162 161 161 171 174 184 184 187 202 221 265 290 309 323 318 322
126 51 327 276 322 253 305 359 306 280 264 260 284 295 287 311 359 149 140 136 152 155 164 166 168 165 173 170 171 163 163 166 167 166 168 166 169 179 190 185 195 216 226 256 293 305 319 328 343
91 114 226 221 272 271 278 293 286 292 293 273 282 280 295 310 68 164 189 170 184 175 177 174 173 173 165 161 174 166 168 168 164 166 170 166 168 172 175 195 208 232 246 268 285 300 307 324 328
94 194 220 257 262 253 251 296 242 273 272 221 257 282 295 290 203 176 228 261 202 192 173 177 173 170 177 167 155 163 168 167 167 165 172 170 168 169 166 178 124 260 260 265 313 320 310 294 248
303 238 234 255 278 320 290 253 258 240 251 246 256 263 275 277 248 206 183 197 199 202 201 176 175 173 180 162 164 155 163 167 177 180 154 160 164 154 182 188 208 223 239 228 245 275 270 281 351
216 266 283 271 281 253 260 248 250 248 262 264 257 269 271 263 257 218 191 167 164 192 188 198 185 180 175 164 164 163 158 167 171 165 163 162 159 182 164 198 210 235 222 217 231 247 90 74 48
247 264 273 261 255 259 257 262 237 223 230 257 253 267 276 261 250 241 191 189 170 156 176 174 181 177 191 174 170 165 149 143 147 155 170 174 150 182 173 206 237 241 231 227 188 119 91 70 46
276 307 319 258 244 251 241 284 223 245 244 249 274 281 288 280 270 221 201 188 167 159 155 162 164 171 181 222 182 169 156 137 153 165 159 164 171 194 182 213 247 284 88 96 85 79 75 73 62
342 324 341 279 305 264 115 276 295 258 256 291 283 263 291 292 279 265 171 153 162 154 159 156 164 167 175 193 233 175 142 148 154 156 162 164 187 204 203 212 202 137 102 99 90 85 72 55 34
326 268 284 305 226 281 160 289 260 297 306 284 261 243 272 289 296 276 194 170 166 161 155 162 150 154 173 164 176 182 150 150 149 142 158 183 186 205 195 202 174 132 116 98 105 61 75 54 354
280 281 277 275 255 296 287 273 283 272 242 255 247 251 244 266 268 272 225 186 174 166 159 155 153 146 155 141 147 148 137 114 142 156 172 166 189 186 165 158 138 142 115 96 74 93 56 85 30
282 276 264 275 279 281 271 272 279 287 236 250 246 236 232 253 260 268 260 192 179 178 164 162 148 154 145 153 166 135 173 149 164 175 173 169 177 153 146 135 142 128 109 127 136 128 78 31 15
265 273 280 282 280 258 271 265 270 268 261 244 246 238 216 241 260 263 257 218 180 186 176 160 150 144 152 164 169 152 147 157 146 170 167 166 158 155 153 153 118 110 123 135 141 115 105 59 17
269 259 275 279 296 274 280 279 259 257 254 256 247 236 214 215 240 242 251 193 169 183 209 147 136 149 156 153 145 110 111 94 99 104 117 156 141 123 116 114 124 129 121 128 104 91 100 117 41
288 249 271 281 296 299 188 294 284 275 265 242 226 214 216 211 225 225 220 183 174 175 181 158 146 147 155 156 159 157 181 160 158 152 128 100 101 108 122 133 129 126 118 103 98 100 91 89 69
260 292 279 275 273 295 279 264 269 297 272 268 247 218 204 209 221 215 191 188 176 159 160 156 144 148 139 136 129 122 134 122 119 120 117 110 97 105 100 104 103 99 86 94 106 78 67 61 95
279 304 293 278 276 227 272 188 283 342 275 291 244 216 205 209 226 219 192 180 175 164 157 157 148 151 146 132 137 129 126 133 136 137 128 120 113 104 107 101 102 94 95 96 85 78 73 72 68
25 332 308 344 322 252 229 230 253 287 322 298 274 223 215 207 211 208 171 176 169 167 167 153 161 166 158 144 148 147 137 138 151 149 146 142 135 132 116 110 103 96 98 87 85 81 73 69 80
307 321 308 303 300 296 293 238 271 322 332 323 329 296 206 196 194 187 184 175 179 172 170 177 172 173 163 149 147 154 143 145 117 155 147 142 131 118 112 106 101 99 95 86 82 80 74 68 73
354 312 254 267 239 266 215 274 291 330 334 342 348 15 359 318 191 181 179 183 189 176 180 180 173 158 152 144 134 147 157 166 136 153 143 133 109 122 115 110 109 101 94 89 88 84 88 75 69
218 311 290 226 303 292 285 285 322 338 335 337 339 350 339 303 259 164 180 187 185 195 178 171 148 145 146 146 149 150 165 144 125 144 136 113 114 118 110 107 108 99 92 88 88 85 77 85 73
342 315 281 269 250 286 301 335 334 331 325 324 325 321 298 281 239 178 174 189 188 173 169 155 147 133 136 156 158 154 154 128 133 140 118 118 116 109 106 116 107 100 93 94 95 90 90 87 87
309 304 303 285 314 285 269 308 300 326 332 333 313 304 275 257 216 186 160 162 167 155 141 145 141 136 148 152 136 144 153 142 130 125 121 114 109 103 115 104 98 93 88 86 92 92 89 92 78